| time (UTC) | temp C | wind direction | speed KPH | gust KPH | rain 1hr cm | rain 24hr cm | rain mn cm | humidity % | barometer mb |
| 20260506201514 | 2 | 71 | 12.9 | 12.9 | 0.00 | 0.00 | 0.00 | 77 | 1011.0 |
| 20260506201010 | 2 | 67 | 12.9 | 12.9 | 0.00 | 0.00 | 0.00 | 75 | 1011.0 |
| 20260506200506 | 3 | 78 | 8.0 | 8.0 | 0.00 | 0.00 | 0.00 | 74 | 1011.1 |
| 20260506200003 | 3 | 73 | 8.0 | 9.7 | 0.00 | 0.00 | 0.00 | 73 | 1010.9 |
| 20260506195500 | 3 | 83 | 4.8 | 4.8 | 0.00 | 0.00 | 0.00 | 72 | 1010.9 |
| 20260506194956 | 3 | 73 | 6.4 | 8.0 | 0.00 | 0.00 | 0.00 | 72 | 1010.9 |
| 20260506194454 | 3 | 104 | 6.4 | 6.4 | 0.00 | 0.00 | 0.00 | 72 | 1010.7 |
| 20260506193950 | 3 | 60 | 4.8 | 8.0 | 0.00 | 0.00 | 0.00 | 72 | 1011.0 |
| 20260506193448 | 4 | 71 | 3.2 | 6.4 | 0.00 | 0.00 | 0.00 | 72 | 1011.0 |
| 20260506192944 | 4 | 110 | 4.8 | 11.3 | 0.00 | 0.00 | 0.00 | 72 | 1010.9 |
| 20260506192441 | 4 | 106 | 4.8 | 11.3 | 0.00 | 0.00 | 0.00 | 72 | 1010.7 |
| 20260506191938 | 4 | 131 | 8.0 | 9.7 | 0.00 | 0.00 | 0.00 | 72 | 1010.8 |
| 20260506191434 | 4 | 134 | 4.8 | 6.4 | 0.00 | 0.00 | 0.00 | 72 | 1010.8 |
| 20260506190931 | 4 | 178 | 6.4 | 12.9 | 0.00 | 0.00 | 0.00 | 72 | 1010.7 |
| 20260506190427 | 4 | 136 | 6.4 | 11.3 | 0.00 | 0.00 | 0.00 | 71 | 1010.7 |
| 20260506185925 | 5 | 85 | 4.8 | 9.7 | 0.00 | 0.00 | 0.00 | 71 | 1010.6 |
| 20260506185422 | 5 | 176 | 3.2 | 11.3 | 0.00 | 0.00 | 0.00 | 70 | 1010.5 |
| 20260506184919 | 5 | 104 | 3.2 | 6.4 | 0.00 | 0.00 | 0.00 | 69 | 1010.6 |
| 20260506184415 | 5 | 125 | 1.6 | 11.3 | 0.00 | 0.00 | 0.00 | 69 | 1010.6 |
| 20260506183913 | 5 | 155 | 6.4 | 16.1 | 0.00 | 0.00 | 0.00 | 69 | 1010.3 |
| 20260506183408 | 5 | 116 | 4.8 | 11.3 | 0.00 | 0.00 | 0.00 | 70 | 1010.6 |
| 20260506182905 | 5 | 134 | 6.4 | 9.7 | 0.00 | 0.00 | 0.00 | 69 | 1010.4 |
| 20260506182402 | 5 | 127 | 8.0 | 14.5 | 0.00 | 0.00 | 0.00 | 69 | 1010.5 |
| 20260506181859 | 5 | 126 | 6.4 | 11.3 | 0.00 | 0.00 | 0.00 | 68 | 1010.3 |
| 20260506181358 | 5 | 162 | 8.0 | 12.9 | 0.00 | 0.00 | 0.00 | 64 | 1010.6 |
| 20260506180854 | 5 | 174 | 6.4 | 12.9 | 0.00 | 0.00 | 0.00 | 65 | 1010.4 |
| 20260506180350 | 5 | 159 | 8.0 | 14.5 | 0.00 | 0.00 | 0.00 | 64 | 1010.5 |
| 20260506175847 | 5 | 149 | 8.0 | 12.9 | 0.00 | 0.00 | 0.00 | 65 | 1010.4 |
| 20260506175344 | 5 | 172 | 11.3 | 14.5 | 0.00 | 0.00 | 0.00 | 64 | 1010.3 |
| 20260506174841 | 5 | 162 | 14.5 | 16.1 | 0.00 | 0.00 | 0.00 | 64 | 1010.2 |
| 20260506174339 | 5 | 176 | 4.8 | 14.5 | 0.00 | 0.00 | 0.00 | 65 | 1010.4 |
| 20260506173836 | 5 | 142 | 8.0 | 16.1 | 0.00 | 0.00 | 0.00 | 65 | 1010.3 |
| 20260506173332 | 5 | 144 | 4.8 | 14.5 | 0.00 | 0.00 | 0.00 | 66 | 1010.4 |
| 20260506172830 | 5 | 148 | 11.3 | 14.5 | 0.00 | 0.00 | 0.00 | 66 | 1010.1 |
| 20260506172326 | 5 | 155 | 17.7 | 19.3 | 0.00 | 0.00 | 0.00 | 66 | 1010.3 |
| 20260506171824 | 6 | 152 | 9.7 | 16.1 | 0.00 | 0.00 | 0.00 | 66 | 1010.2 |
| 20260506171321 | 6 | 164 | 9.7 | 19.3 | 0.00 | 0.00 | 0.00 | 66 | 1010.3 |
| 20260506170819 | 6 | 162 | 9.7 | 17.7 | 0.00 | 0.00 | 0.00 | 66 | 1010.2 |
| 20260506170314 | 6 | 116 | 8.0 | 19.3 | 0.00 | 0.00 | 0.00 | 65 | 1010.1 |
| 20260506165814 | 6 | 157 | 9.7 | 20.9 | 0.00 | 0.00 | 0.00 | 62 | 1010.1 |
| 20260506165310 | 6 | 149 | 12.9 | 16.1 | 0.00 | 0.00 | 0.00 | 61 | 1010.1 |
| 20260506164807 | 6 | 144 | 8.0 | 11.3 | 0.00 | 0.00 | 0.00 | 63 | 1010.1 |
| 20260506164304 | 6 | 172 | 8.0 | 16.1 | 0.00 | 0.00 | 0.00 | 62 | 1010.0 |
| 20260506163800 | 6 | 161 | 12.9 | 16.1 | 0.00 | 0.00 | 0.00 | 61 | 1010.1 |
| 20260506163255 | 6 | 140 | 6.4 | 14.5 | 0.00 | 0.00 | 0.00 | 63 | 1009.9 |
| 20260506162751 | 6 | 167 | 14.5 | 17.7 | 0.00 | 0.00 | 0.00 | 61 | 1010.0 |
| 20260506162250 | 6 | 120 | 8.0 | 14.5 | 0.00 | 0.00 | 0.00 | 60 | 1009.9 |
| 20260506161747 | 6 | 137 | 9.7 | 17.7 | 0.00 | 0.00 | 0.00 | 60 | 1010.0 |
| 20260506161244 | 7 | 75 | 3.2 | 19.3 | 0.00 | 0.00 | 0.00 | 58 | 1010.0 |
| 20260506160741 | 7 | 145 | 9.7 | 16.1 | 0.00 | 0.00 | 0.00 | 57 | 1009.9 |
| 20260506160238 | 7 | 147 | 12.9 | 19.3 | 0.00 | 0.00 | 0.00 | 56 | 1009.9 |
| 20260506155737 | 7 | 157 | 6.4 | 14.5 | 0.00 | 0.00 | 0.00 | 56 | 1009.7 |
| 20260506155233 | 7 | 164 | 6.4 | 17.7 | 0.00 | 0.00 | 0.00 | 55 | 1009.8 |
| 20260506153340 | 7 | 310 | 4.8 | 9.7 | 0.00 | 0.00 | 0.00 | 55 | 1009.7 |
| 20260506152837 | 7 | 284 | 8.0 | 9.7 | 0.00 | 0.00 | 0.00 | 59 | 1009.5 |
| 20260506152334 | 8 | 271 | 4.8 | 12.9 | 0.00 | 0.00 | 0.00 | 56 | 1009.6 |
| 20260506151833 | 7 | 16 | 6.4 | 16.1 | 0.00 | 0.00 | 0.00 | 54 | 1009.7 |
| 20260506151329 | 7 | 296 | 9.7 | 12.9 | 0.00 | 0.00 | 0.00 | 55 | 1009.8 |
| 20260506150826 | 7 | 312 | 8.0 | 9.7 | 0.00 | 0.00 | 0.00 | 53 | 1009.8 |
| 20260506150323 | 7 | 20 | 4.8 | 8.0 | 0.00 | 0.00 | 0.00 | 54 | 1009.6 |
| 20260506145820 | 7 | 292 | 9.7 | 9.7 | 0.00 | 0.00 | 0.00 | 58 | 1009.6 |
| 20260506145316 | 7 | 305 | 9.7 | 11.3 | 0.00 | 0.00 | 0.00 | 56 | 1009.4 |
| 20260506144814 | 7 | 307 | 8.0 | 9.7 | 0.00 | 0.00 | 0.00 | 54 | 1009.6 |
| 20260506144310 | 7 | 304 | 11.3 | 12.9 | 0.00 | 0.00 | 0.00 | 57 | 1009.5 |
| 20260506143809 | 7 | 28 | 6.4 | 9.7 | 0.00 | 0.00 | 0.00 | 54 | 1009.3 |
| 20260506143305 | 7 | 338 | 1.6 | 8.0 | 0.00 | 0.00 | 0.00 | 55 | 1009.5 |
| 20260506142804 | 7 | 298 | 6.4 | 6.4 | 0.00 | 0.00 | 0.00 | 54 | 1009.6 |
| 20260506142301 | 7 | 294 | 6.4 | 6.4 | 0.00 | 0.00 | 0.00 | 54 | 1009.6 |
| 20260506141759 | 7 | 302 | 4.8 | 6.4 | 0.00 | 0.00 | 0.00 | 54 | 1009.6 |
| 20260506141258 | 7 | 333 | 3.2 | 9.7 | 0.00 | 0.00 | 0.00 | 52 | 1009.4 |
| 20260506140755 | 7 | 324 | 6.4 | 9.7 | 0.00 | 0.00 | 0.00 | 54 | 1009.5 |
| 20260506140252 | 8 | 286 | 6.4 | 9.7 | 0.00 | 0.00 | 0.00 | 55 | 1009.5 |
| 20260506135749 | 7 | 290 | 6.4 | 8.0 | 0.00 | 0.00 | 0.00 | 55 | 1009.4 |
| 20260506135245 | 7 | 279 | 6.4 | 11.3 | 0.00 | 0.00 | 0.00 | 54 | 1009.4 |
| 20260506134742 | 7 | 273 | 3.2 | 6.4 | 0.00 | 0.00 | 0.00 | 56 | 1009.4 |
| 20260506134238 | 7 | 307 | 6.4 | 8.0 | 0.00 | 0.00 | 0.00 | 54 | 1009.6 |
| 20260506133736 | 7 | 288 | 6.4 | 16.1 | 0.00 | 0.00 | 0.00 | 60 | 1009.3 |
| 20260506133232 | 7 | 24 | 9.7 | 11.3 | 0.00 | 0.00 | 0.00 | 57 | 1009.3 |
| 20260506132729 | 7 | 60 | 9.7 | 14.5 | 0.00 | 0.00 | 0.00 | 58 | 1009.3 |
| 20260506132226 | 6 | 31 | 8.0 | 16.1 | 0.00 | 0.00 | 0.00 | 56 | 1009.3 |
| 20260506131724 | 6 | 19 | 8.0 | 14.5 | 0.00 | 0.00 | 0.00 | 59 | 1009.4 |
| 20260506131220 | 6 | 55 | 11.3 | 16.1 | 0.00 | 0.00 | 0.00 | 61 | 1009.2 |
| 20260506130717 | 6 | 44 | 8.0 | 9.7 | 0.00 | 0.00 | 0.00 | 63 | 1009.2 |
| 20260506130214 | 6 | 23 | 16.1 | 17.7 | 0.05 | 0.00 | 0.00 | 62 | 1009.4 |
| 20260506125712 | 6 | 2 | 8.0 | 16.1 | 0.05 | 0.00 | 0.00 | 63 | 1009.4 |
| 20260506125209 | 6 | 333 | 11.3 | 24.1 | 0.00 | 0.00 | 0.00 | 60 | 1009.3 |
| 20260506124707 | 6 | 334 | 6.4 | 12.9 | 0.00 | 0.00 | 0.00 | 59 | 1009.3 |
| 20260506124205 | 6 | 328 | 9.7 | 17.7 | 0.00 | 0.00 | 0.00 | 56 | 1009.1 |
| 20260506123702 | 6 | 325 | 9.7 | 9.7 | 0.00 | 0.00 | 0.00 | 56 | 1009.1 |
| 20260506123201 | 6 | 321 | 9.7 | 14.5 | 0.00 | 0.00 | 0.00 | 57 | 1009.1 |
| 20260506122657 | 6 | 314 | 9.7 | 11.3 | 0.00 | 0.00 | 0.00 | 62 | 1009.0 |
| 20260506122155 | 6 | 292 | 4.8 | 6.4 | 0.00 | 0.00 | 0.00 | 61 | 1009.2 |
| 20260506121652 | 6 | 309 | 8.0 | 9.7 | 0.00 | 0.00 | 0.00 | 60 | 1009.1 |
| 20260506121148 | 6 | 324 | 6.4 | 9.7 | 0.00 | 0.00 | 0.00 | 62 | 1009.0 |
| 20260506120647 | 6 | 327 | 4.8 | 6.4 | 0.00 | 0.00 | 0.00 | 61 | 1008.9 |
| 20260506120143 | 6 | 309 | 8.0 | 9.7 | 0.00 | 0.00 | 0.00 | 62 | 1009.1 |
| 20260506115642 | 6 | 323 | 8.0 | 9.7 | 0.00 | 0.00 | 0.00 | 62 | 1008.8 |
| 20260506115140 | 6 | 309 | 4.8 | 9.7 | 0.00 | 0.00 | 0.00 | 63 | 1008.7 |
| 20260506114637 | 6 | 316 | 9.7 | 9.7 | 0.00 | 0.00 | 0.00 | 66 | 1008.7 |
| 20260506114135 | 6 | 272 | 4.8 | 11.3 | 0.00 | 0.00 | 0.00 | 63 | 1008.7 |
| 20260506113633 | 6 | 8 | 3.2 | 9.7 | 0.00 | 0.00 | 0.00 | 66 | 1008.7 |
| 20260506113130 | 6 | 317 | 6.4 | 9.7 | 0.00 | 0.00 | 0.00 | 65 | 1008.6 |
| 20260506112626 | 6 | 317 | 9.7 | 14.5 | 0.00 | 0.00 | 0.00 | 66 | 1008.6 |
| 20260506112124 | 5 | 303 | 8.0 | 11.3 | 0.00 | 0.00 | 0.00 | 68 | 1008.5 |
| 20260506111621 | 5 | 321 | 6.4 | 12.9 | 0.00 | 0.00 | 0.00 | 67 | 1008.7 |
| 20260506111119 | 5 | 338 | 4.8 | 8.0 | 0.00 | 0.00 | 0.00 | 68 | 1008.5 |
| 20260506110616 | 5 | 310 | 1.6 | 3.2 | 0.00 | 0.00 | 0.00 | 66 | 1008.5 |
| 20260506110113 | 6 | 331 | 0.0 | 8.0 | 0.00 | 0.00 | 0.00 | 67 | 1008.4 |
| 20260506105609 | 6 | 291 | 6.4 | 11.3 | 0.00 | 0.00 | 0.00 | 67 | 1008.5 |
| 20260506105107 | 5 | 10 | 4.8 | 9.7 | 0.00 | 0.00 | 0.00 | 71 | 1008.6 |
| 20260506104605 | 5 | 320 | 8.0 | 12.9 | 0.00 | 0.00 | 0.00 | 71 | 1008.5 |
| 20260506104102 | 5 | 307 | 11.3 | 14.5 | 0.00 | 0.00 | 0.00 | 72 | 1008.5 |
| 20260506103559 | 5 | 357 | 4.8 | 14.5 | 0.00 | 0.00 | 0.00 | 72 | 1008.5 |
| 20260506103056 | 5 | 299 | 9.7 | 16.1 | 0.00 | 0.00 | 0.00 | 75 | 1008.2 |
| 20260506102554 | 5 | 312 | 11.3 | 16.1 | 0.00 | 0.00 | 0.00 | 72 | 1008.4 |
| 20260506102051 | 5 | 310 | 6.4 | 14.5 | 0.00 | 0.00 | 0.00 | 74 | 1008.1 |
| 20260506101548 | 5 | 298 | 11.3 | 17.7 | 0.00 | 0.00 | 0.00 | 73 | 1008.4 |
| 20260506101045 | 5 | 306 | 14.5 | 19.3 | 0.00 | 0.00 | 0.00 | 75 | 1008.1 |
| 20260506100543 | 5 | 301 | 12.9 | 19.3 | 0.00 | 0.00 | 0.00 | 76 | 1008.2 |
| 20260506100041 | 5 | 291 | 11.3 | 17.7 | 0.00 | 0.00 | 0.00 | 76 | 1008.2 |
| 20260506095540 | 5 | 284 | 11.3 | 19.3 | 0.00 | 0.00 | 0.00 | 77 | 1008.2 |
| 20260506095035 | 5 | 290 | 12.9 | 19.3 | 0.00 | 0.00 | 0.00 | 75 | 1008.0 |
| 20260506094533 | 5 | 278 | 11.3 | 17.7 | 0.00 | 0.00 | 0.00 | 74 | 1008.1 |
| 20260506094031 | 4 | 276 | 11.3 | 19.3 | 0.00 | 0.00 | 0.00 | 77 | 1008.0 |
| 20260506093529 | 4 | 271 | 9.7 | 20.9 | 0.00 | 0.00 | 0.00 | 74 | 1008.0 |
| 20260506093026 | 4 | 287 | 9.7 | 22.5 | 0.00 | 0.00 | 0.00 | 76 | 1008.0 |
| 20260506092524 | 4 | 282 | 22.5 | 25.7 | 0.00 | 0.00 | 0.00 | 78 | 1007.9 |
| 20260506092020 | 4 | 267 | 22.5 | 24.1 | 0.00 | 0.00 | 0.00 | 77 | 1007.9 |
| 20260506091519 | 4 | 280 | 19.3 | 30.6 | 0.00 | 0.00 | 0.00 | 77 | 1007.7 |
| 20260506091016 | 5 | 289 | 17.7 | 29.0 | 0.00 | 0.00 | 0.00 | 79 | 1007.8 |
| 20260506090514 | 5 | 277 | 27.4 | 32.2 | 0.00 | 0.00 | 0.00 | 76 | 1007.6 |
| 20260506090010 | 6 | 290 | 17.7 | 24.1 | 0.00 | 0.00 | 0.00 | 75 | 1007.7 |
| 20260506085507 | 6 | 290 | 4.8 | 6.4 | 0.00 | 0.00 | 0.00 | 63 | 1007.4 |
| 20260506085003 | 6 | 322 | 6.4 | 6.4 | 0.00 | 0.00 | 0.00 | 64 | 1007.4 |
| 20260506084500 | 5 | 315 | 4.8 | 6.4 | 0.00 | 0.00 | 0.00 | 65 | 1007.4 |
| 20260506083956 | 5 | 255 | 4.8 | 8.0 | 0.00 | 0.00 | 0.00 | 70 | 1007.4 |
| 20260506083454 | 5 | 303 | 4.8 | 8.0 | 0.00 | 0.00 | 0.00 | 69 | 1007.3 |
| 20260506082951 | 5 | 284 | 3.2 | 8.0 | 0.00 | 0.00 | 0.00 | 69 | 1007.4 |
| 20260506082448 | 5 | 314 | 6.4 | 8.0 | 0.00 | 0.00 | 0.00 | 71 | 1007.3 |
| 20260506081943 | 5 | 313 | 6.4 | 8.0 | 0.00 | 0.00 | 0.00 | 69 | 1007.2 |
| 20260506081442 | 6 | 293 | 4.8 | 6.4 | 0.00 | 0.00 | 0.00 | 68 | 1007.1 |
| 20260506080939 | 6 | 293 | 4.8 | 6.4 | 0.00 | 0.00 | 0.00 | 68 | 1007.1 |
| 20260506080436 | 6 | 316 | 3.2 | 4.8 | 0.00 | 0.00 | 0.00 | 68 | 1007.1 |
| 20260506073420 | 5 | 318 | 1.6 | 3.2 | 0.00 | 0.00 | 0.00 | 73 | 1006.9 |
| 20260506072917 | 4 | 47 | 1.6 | 3.2 | 0.00 | 0.00 | 0.00 | 79 | 1006.9 |
| 20260506072414 | 4 | 79 | 0.0 | 3.2 | 0.00 | 0.00 | 0.00 | 77 | 1006.9 |
| 20260506071912 | 4 | 50 | 0.0 | 3.2 | 0.00 | 0.00 | 0.00 | 78 | 1006.8 |
| 20260506071410 | 3 | 331 | 0.0 | 1.6 | 0.00 | 0.00 | 0.00 | 77 | 1006.7 |
| 20260506070906 | 3 | 328 | 0.0 | 3.2 | 0.00 | 0.00 | 0.00 | 77 | 1006.8 |
| 20260506070403 | 3 | 25 | 0.0 | 3.2 | 0.00 | 0.00 | 0.00 | 79 | 1006.8 |
| 20260506062340 | 3 | 337 | 1.6 | 3.2 | 0.00 | 0.00 | 0.00 | 82 | 1006.4 |
| 20260506061836 | 3 | 317 | 0.0 | 3.2 | 0.00 | 0.00 | 0.00 | 82 | 1006.5 |
| 20260506061333 | 3 | 32 | 3.2 | 3.2 | 0.00 | 0.00 | 0.00 | 83 | 1006.4 |
| 20260506060831 | 3 | 112 | 1.6 | 4.8 | 0.00 | 0.00 | 0.00 | 83 | 1006.4 |
| 20260506060329 | 3 | 49 | 3.2 | 3.2 | 0.00 | 0.00 | 0.00 | 83 | 1006.1 |
| 20260506051300 | 3 | 101 | 3.2 | 3.2 | 0.00 | 0.00 | 0.00 | 84 | 1006.2 |
| 20260506050759 | 3 | 51 | 0.0 | 4.8 | 0.00 | 0.00 | 0.00 | 81 | 1006.0 |
| 20260506050256 | 3 | 49 | 3.2 | 6.4 | 0.00 | 0.00 | 0.00 | 85 | 1006.1 |
| 20260506044746 | 2 | 63 | 6.4 | 6.4 | 0.00 | 0.00 | 0.00 | 91 | 1006.0 |
| 20260506044244 | 2 | 50 | 6.4 | 6.4 | 0.00 | 0.00 | 0.00 | 93 | 1006.1 |
| 20260506043741 | 2 | 45 | 3.2 | 3.2 | 0.00 | 0.00 | 0.00 | 92 | 1006.0 |
| 20260506043238 | 1 | 48 | 3.2 | 4.8 | 0.00 | 0.00 | 0.00 | 92 | 1006.1 |
| 20260506042737 | 1 | 60 | 4.8 | 6.4 | 0.00 | 0.00 | 0.00 | 92 | 1005.9 |
| 20260506042235 | 2 | 58 | 4.8 | 6.4 | 0.00 | 0.00 | 0.00 | 93 | 1005.8 |
| 20260506041733 | 1 | 72 | 4.8 | 4.8 | 0.00 | 0.00 | 0.00 | 94 | 1005.8 |
| 20260506041230 | 1 | 83 | 3.2 | 4.8 | 0.00 | 0.00 | 0.00 | 95 | 1005.7 |
| 20260506040727 | 1 | 64 | 3.2 | 4.8 | 0.00 | 0.00 | 0.00 | 95 | 1005.6 |
| 20260506040224 | 1 | 67 | 6.4 | 8.0 | 0.00 | 0.00 | 0.00 | 96 | 1005.6 |
| 20260506035721 | 1 | 78 | 6.4 | 6.4 | 0.00 | 0.00 | 0.00 | 96 | 1005.5 |
| 20260506035218 | 0 | 85 | 4.8 | 9.7 | 0.00 | 0.00 | 0.00 | 96 | 1005.5 |
| 20260506034714 | 0 | 68 | 8.0 | 9.7 | 0.00 | 0.00 | 0.00 | 96 | 1005.6 |
| 20260506034212 | 0 | 79 | 8.0 | 9.7 | 0.00 | 0.00 | 0.00 | 96 | 1005.5 |
| 20260506033709 | 0 | 78 | 6.4 | 8.0 | 0.00 | 0.00 | 0.00 | 96 | 1005.6 |
| 20260506033206 | 0 | 78 | 6.4 | 8.0 | 0.00 | 0.00 | 0.00 | 96 | 1005.4 |
| 20260506032703 | 0 | 73 | 9.7 | 11.3 | 0.00 | 0.00 | 0.00 | 96 | 1005.4 |
| 20260506032200 | 0 | 68 | 9.7 | 11.3 | 0.00 | 0.00 | 0.00 | 96 | 1005.4 |
| 20260506031657 | 0 | 66 | 11.3 | 11.3 | 0.00 | 0.00 | 0.00 | 96 | 1005.3 |
| 20260506031154 | 0 | 64 | 9.7 | 11.3 | 0.00 | 0.00 | 0.00 | 96 | 1005.2 |
| 20260506030652 | 1 | 63 | 9.7 | 9.7 | 0.00 | 0.00 | 0.00 | 96 | 1005.4 |
| 20260506030149 | 1 | 55 | 8.0 | 8.0 | 0.00 | 0.00 | 0.00 | 96 | 1005.2 |
| 20260506025646 | 1 | 72 | 4.8 | 4.8 | 0.00 | 0.00 | 0.00 | 96 | 1004.9 |
| 20260506025142 | 1 | 69 | 4.8 | 4.8 | 0.00 | 0.00 | 0.00 | 96 | 1005.1 |
| 20260506024640 | 1 | 84 | 4.8 | 6.4 | 0.00 | 0.00 | 0.00 | 96 | 1005.0 |
| 20260506024136 | 1 | 92 | 6.4 | 6.4 | 0.00 | 0.00 | 0.00 | 96 | 1005.0 |
| 20260506023632 | 1 | 82 | 4.8 | 6.4 | 0.00 | 0.00 | 0.00 | 96 | 1005.2 |
| 20260506023129 | 1 | 73 | 4.8 | 6.4 | 0.00 | 0.00 | 0.00 | 96 | 1005.3 |
| 20260506022627 | 1 | 79 | 6.4 | 6.4 | 0.00 | 0.00 | 0.00 | 96 | 1005.2 |
| 20260506022124 | 1 | 76 | 6.4 | 8.0 | 0.00 | 0.00 | 0.00 | 96 | 1005.0 |
| 20260506021622 | 1 | 77 | 6.4 | 8.0 | 0.00 | 0.00 | 0.00 | 96 | 1004.9 |
| 20260506021119 | 1 | 79 | 4.8 | 6.4 | 0.00 | 0.00 | 0.00 | 96 | 1005.0 |
| 20260506020616 | 1 | 69 | 6.4 | 6.4 | 0.00 | 0.00 | 0.00 | 95 | 1005.0 |
| 20260506020113 | 1 | 72 | 6.4 | 6.4 | 0.00 | 0.00 | 0.00 | 95 | 1004.8 |
| 20260506015611 | 1 | 69 | 6.4 | 6.4 | 0.00 | 0.00 | 0.00 | 95 | 1004.7 |
| 20260506015107 | 1 | 76 | 6.4 | 9.7 | 0.00 | 0.00 | 0.00 | 95 | 1004.8 |
| 20260506014605 | 1 | 77 | 8.0 | 8.0 | 0.00 | 0.00 | 0.00 | 95 | 1004.9 |
| 20260506014100 | 1 | 71 | 8.0 | 9.7 | 0.00 | 0.00 | 0.00 | 95 | 1004.6 |
| 20260506013559 | 1 | 56 | 9.7 | 9.7 | 0.00 | 0.00 | 0.00 | 95 | 1004.8 |
| 20260506013055 | 1 | 54 | 8.0 | 9.7 | 0.00 | 0.00 | 0.00 | 95 | 1004.8 |
| 20260506012551 | 1 | 71 | 6.4 | 8.0 | 0.00 | 0.00 | 0.00 | 94 | 1004.7 |
| 20260506012048 | 1 | 64 | 6.4 | 8.0 | 0.00 | 0.00 | 0.00 | 94 | 1004.7 |
| 20260506011546 | 1 | 84 | 6.4 | 6.4 | 0.00 | 0.00 | 0.00 | 94 | 1004.5 |
| 20260506011042 | 1 | 85 | 4.8 | 6.4 | 0.00 | 0.00 | 0.00 | 94 | 1004.6 |
| 20260506010542 | 1 | 55 | 4.8 | 6.4 | 0.00 | 0.00 | 0.00 | 94 | 1004.5 |
| 20260506010038 | 1 | 69 | 4.8 | 4.8 | 0.00 | 0.00 | 0.00 | 94 | 1004.5 |
| 20260506005535 | 1 | 92 | 4.8 | 6.4 | 0.00 | 0.00 | 0.00 | 94 | 1004.7 |
| 20260506005031 | 1 | 63 | 3.2 | 4.8 | 0.00 | 0.00 | 0.00 | 94 | 1004.4 |
| 20260506004528 | 1 | 65 | 6.4 | 8.0 | 0.00 | 0.00 | 0.00 | 94 | 1004.6 |
| 20260506004025 | 1 | 60 | 6.4 | 6.4 | 0.00 | 0.00 | 0.00 | 94 | 1004.6 |
| 20260506003521 | 1 | 43 | 4.8 | 4.8 | 0.00 | 0.00 | 0.00 | 94 | 1004.3 |
| 20260506003017 | 1 | 45 | 0.0 | 4.8 | 0.00 | 0.00 | 0.00 | 94 | 1004.5 |
| 20260506002514 | 1 | 78 | 3.2 | 4.8 | 0.00 | 0.00 | 0.00 | 94 | 1004.5 |
| 20260506002009 | 1 | 83 | 3.2 | 4.8 | 0.00 | 0.00 | 0.00 | 94 | 1004.2 |
| 20260506001506 | 1 | 74 | 3.2 | 6.4 | 0.00 | 0.00 | 0.00 | 94 | 1004.5 |
| 20260506001004 | 1 | 84 | 6.4 | 6.4 | 0.00 | 0.00 | 0.00 | 94 | 1004.5 |
| 20260506000501 | 1 | 64 | 6.4 | 9.7 | 0.00 | 0.00 | 0.00 | 94 | 1004.2 |
| 20260505235957 | 1 | 71 | 6.4 | 6.4 | 0.00 | 0.00 | 0.00 | 94 | 1004.3 |
| 20260505235456 | 1 | 71 | 6.4 | 6.4 | 0.00 | 0.00 | 0.00 | 94 | 1004.3 |
| 20260505234952 | 1 | 77 | 6.4 | 6.4 | 0.00 | 0.00 | 0.00 | 94 | 1004.0 |
| 20260505234450 | 1 | 59 | 6.4 | 6.4 | 0.00 | 0.00 | 0.00 | 94 | 1004.2 |
| 20260505233946 | 1 | 74 | 4.8 | 6.4 | 0.00 | 0.00 | 0.00 | 93 | 1004.1 |
| 20260505233444 | 1 | 69 | 8.0 | 9.7 | 0.00 | 0.00 | 0.00 | 93 | 1003.9 |
| 20260505232941 | 1 | 74 | 6.4 | 9.7 | 0.00 | 0.00 | 0.00 | 93 | 1004.1 |
| 20260505232439 | 1 | 68 | 9.7 | 11.3 | 0.00 | 0.00 | 0.00 | 93 | 1004.0 |
| 20260505231936 | 1 | 75 | 8.0 | 11.3 | 0.00 | 0.00 | 0.00 | 93 | 1004.0 |
| 20260505231433 | 1 | 70 | 6.4 | 9.7 | 0.00 | 0.00 | 0.00 | 92 | 1004.1 |
| 20260505230931 | 2 | 73 | 6.4 | 8.0 | 0.00 | 0.00 | 0.00 | 92 | 1003.9 |
| 20260505230429 | 2 | 77 | 8.0 | 9.7 | 0.00 | 0.00 | 0.00 | 92 | 1003.9 |
| 20260505225925 | 2 | 71 | 9.7 | 11.3 | 0.00 | 0.00 | 0.00 | 92 | 1004.1 |
| 20260505225422 | 2 | 64 | 9.7 | 11.3 | 0.00 | 0.00 | 0.00 | 92 | 1003.9 |
| 20260505224917 | 2 | 81 | 4.8 | 8.0 | 0.00 | 0.00 | 0.00 | 92 | 1004.0 |
| 20260505224415 | 2 | 71 | 9.7 | 9.7 | 0.00 | 0.00 | 0.00 | 91 | 1003.9 |
| 20260505223912 | 2 | 78 | 6.4 | 9.7 | 0.00 | 0.00 | 0.00 | 91 | 1003.9 |
| 20260505223409 | 2 | 80 | 6.4 | 9.7 | 0.00 | 0.00 | 0.00 | 90 | 1003.9 |
| 20260505222905 | 2 | 70 | 6.4 | 9.7 | 0.00 | 0.00 | 0.00 | 89 | 1003.9 |
| 20260505222401 | 2 | 70 | 9.7 | 11.3 | 0.00 | 0.00 | 0.00 | 88 | 1003.8 |
| 20260505221858 | 2 | 52 | 6.4 | 6.4 | 0.00 | 0.00 | 0.00 | 87 | 1003.9 |
| 20260505221355 | 3 | 47 | 6.4 | 8.0 | 0.00 | 0.00 | 0.00 | 85 | 1003.7 |
| 20260505220852 | 3 | 38 | 3.2 | 4.8 | 0.00 | 0.00 | 0.00 | 83 | 1003.5 |
| 20260505220349 | 3 | 20 | 6.4 | 9.7 | 0.00 | 0.00 | 0.00 | 83 | 1003.7 |
| 20260505215847 | 3 | 77 | 3.2 | 4.8 | 0.00 | 0.03 | 0.03 | 82 | 1003.7 |
| 20260505215345 | 3 | 106 | 4.8 | 6.4 | 0.00 | 0.03 | 0.03 | 82 | 1003.6 |
| 20260505214843 | 3 | 96 | 3.2 | 6.4 | 0.00 | 0.03 | 0.03 | 82 | 1003.6 |
| 20260505214340 | 3 | 269 | 0.0 | 3.2 | 0.00 | 0.03 | 0.03 | 81 | 1003.7 |
| 20260505213837 | 3 | 262 | 0.0 | 9.7 | 0.00 | 0.03 | 0.03 | 82 | 1003.5 |
| 20260505213335 | 3 | 94 | 3.2 | 3.2 | 0.00 | 0.03 | 0.03 | 81 | 1003.6 |
| 20260505212830 | 3 | 84 | 1.6 | 9.7 | 0.00 | 0.03 | 0.03 | 81 | 1003.4 |
| 20260505212328 | 3 | 112 | 4.8 | 4.8 | 0.00 | 0.03 | 0.03 | 81 | 1003.5 |
| 20260505211824 | 3 | 112 | 0.0 | 4.8 | 0.00 | 0.03 | 0.03 | 81 | 1003.4 |
| 20260505211322 | 3 | 115 | 6.4 | 8.0 | 0.00 | 0.03 | 0.03 | 81 | 1003.4 |
| 20260505210818 | 3 | 117 | 4.8 | 6.4 | 0.00 | 0.03 | 0.03 | 80 | 1003.4 |
| 20260505210315 | 3 | 93 | 3.2 | 9.7 | 0.00 | 0.03 | 0.03 | 78 | 1003.3 |
| 20260505205812 | 3 | 121 | 4.8 | 8.0 | 0.00 | 0.03 | 0.03 | 78 | 1003.4 |
| 20260505205310 | 3 | 341 | 1.6 | 6.4 | 0.00 | 0.03 | 0.03 | 78 | 1003.3 |
| 20260505204806 | 3 | 102 | 8.0 | 8.0 | 0.00 | 0.03 | 0.03 | 78 | 1003.2 |
| 20260505204304 | 3 | 91 | 4.8 | 8.0 | 0.00 | 0.03 | 0.03 | 78 | 1003.1 |
| 20260505203801 | 3 | 95 | 4.8 | 6.4 | 0.00 | 0.03 | 0.03 | 78 | 1003.0 |
| 20260505203258 | 3 | 104 | 4.8 | 8.0 | 0.00 | 0.03 | 0.03 | 78 | 1003.0 |
| 20260505202754 | 3 | 91 | 8.0 | 11.3 | 0.00 | 0.03 | 0.03 | 78 | 1003.1 |
| 20260505202250 | 3 | 107 | 6.4 | 9.7 | 0.00 | 0.03 | 0.03 | 78 | 1002.9 |
| 20260505201747 | 3 | 89 | 6.4 | 8.0 | 0.00 | 0.03 | 0.03 | 78 | 1002.9 |